TimeCST,TemperatureF,Dew PointF,Humidity,Sea Level PressureIn,VisibilityMPH,Wind Direction,Wind SpeedMPH,Gust SpeedMPH,PrecipitationIn,Events,Conditions,WindDirDegrees,DateUTC
12:53 AM,37.9,36.0,93,30.16,6.0,Calm,Calm,-,N/A,,Clear,0,2013-01-21 06:53:00
1:53 AM,37.9,36.0,93,30.16,5.0,Calm,Calm,-,N/A,,Clear,0,2013-01-21 07:53:00
2:53 AM,37.4,35.6,93,30.17,7.0,Calm,Calm,-,N/A,,Clear,0,2013-01-21 08:53:00
3:53 AM,37.0,35.1,93,30.17,6.0,Calm,Calm,-,N/A,,Clear,0,2013-01-21 09:53:00
4:53 AM,37.0,35.1,93,30.17,10.0,Calm,Calm,-,N/A,,Clear,0,2013-01-21 10:53:00
5:53 AM,37.9,35.1,89,30.18,10.0,WSW,3.5,-,N/A,,Clear,250,2013-01-21 11:53:00
6:53 AM,37.0,35.1,93,30.19,8.0,Calm,Calm,-,N/A,,Clear,0,2013-01-21 12:53:00
7:53 AM,37.9,36.0,93,30.21,7.0,Calm,Calm,-,N/A,,Clear,0,2013-01-21 13:53:00
8:53 AM,45.0,42.1,90,30.22,10.0,Calm,Calm,-,N/A,,Clear,0,2013-01-21 14:53:00
9:53 AM,55.9,48.0,75,30.23,10.0,Calm,Calm,-,N/A,,Clear,0,2013-01-21 15:53:00
10:53 AM,62.1,48.0,60,30.23,10.0,Calm,Calm,-,N/A,,Clear,0,2013-01-21 16:53:00
11:53 AM,66.0,46.9,50,30.22,10.0,NE,5.8,-,N/A,,Clear,40,2013-01-21 17:53:00
12:53 PM,68.0,46.9,47,30.20,10.0,Variable,6.9,-,N/A,,Clear,0,2013-01-21 18:53:00
1:53 PM,64.9,48.0,54,30.19,10.0,Variable,5.8,-,N/A,,Mostly Cloudy,0,2013-01-21 19:53:00
2:53 PM,63.0,46.0,54,30.20,10.0,East,8.1,-,N/A,,Mostly Cloudy,80,2013-01-21 20:53:00
3:53 PM,59.0,43.0,55,30.22,10.0,Variable,5.8,-,N/A,,Overcast,0,2013-01-21 21:53:00
4:53 PM,55.0,39.9,57,30.24,10.0,ENE,9.2,-,N/A,,Mostly Cloudy,70,2013-01-21 22:53:00
5:53 PM,51.1,37.9,61,30.24,10.0,ENE,4.6,-,N/A,,Clear,60,2013-01-21 23:53:00
6:53 PM,48.9,36.0,61,30.24,10.0,Variable,3.5,-,N/A,,Clear,0,2013-01-22 00:53:00
7:53 PM,44.1,37.0,76,30.23,10.0,Calm,Calm,-,N/A,,Clear,0,2013-01-22 01:53:00
8:53 PM,41.0,36.0,82,30.24,10.0,Calm,Calm,-,N/A,,Clear,0,2013-01-22 02:53:00
9:53 PM,44.1,34.0,68,30.25,10.0,NE,4.6,-,N/A,,Clear,50,2013-01-22 03:53:00
10:53 PM,44.1,34.0,68,30.25,10.0,Calm,Calm,-,N/A,,Mostly Cloudy,0,2013-01-22 04:53:00
11:53 PM,43.0,34.0,71,30.26,10.0,Variable,4.6,-,N/A,,Partly Cloudy,0,2013-01-22 05:53:00